User: anonymous   Login
Location: Chiroubles
(46.1812°N, 4.6660°E)
Time: 00:57:57
(UTC+00:00)
Language:

Iridium 4 Rocket - Orbit

View from above orbital plane
View from above orbital plane
View from above satellite
View from above satellite

Ground track
Ground track

The orbit data is extracted from the following two-line orbital elements,

1 24797U 97020F   20293.44901247  .00000083  00000-0  12458-4 0  9999
2 24797  86.8918 266.3751 0223807 207.6870 265.5550 14.44192809234046
Epoch (UTC): 19 October 2020 10:46:34
Eccentricity: 0.0223807
inclination: 86.8918°
perigee height: 585 km
apogee height: 904 km
right ascension of ascending node: 266.3751°
argument of perigee: 207.6870°
revolutions per day: 14.44192809
mean anomaly at epoch: 265.5550°
orbit number at epoch: 23404

The dashed part of the orbit path shows where the satellite is in the earth's shadow,  

DLR